Theta_e
297 294 293 291 292 293 294 293 293 294 293 292 292 292 291 292 292 294 294 295 295 291 291 292 293 292 293 294 294 294 293 293 292 291 290 290 290 290 291 291 291 291 292 294 294 294 294 295 295 295 295 296 298 297 297 297 298 299 299 299 299 300 302 303 304 304 304 303 304 306 310 313 318 320 320 322 323 324 324 324 325 325 324 324 325 324
294 292 294 294 293 293 293 293 292 292 292 291 292 292 291 293 290 293 293 294 295 289 289 292 291 291 293 293 293 292 290 288 290 289 289 289 289 290 290 290 290 291 293 293 293 293 294 294 295 294 294 295 295 296 296 296 296 297 298 299 298 299 300 302 303 303 303 303 303 303 304 311 314 318 319 319 322 323 324 324 324 324 324 323 323 323
293 290 293 292 293 292 291 292 291 292 292 294 292 292 291 292 291 294 294 294 293 290 288 290 288 290 292 293 292 289 288 288 290 290 288 288 288 289 289 290 290 290 290 291 291 293 293 293 293 293 293 294 295 297 297 298 298 297 297 297 298 298 299 300 302 302 303 303 303 303 304 306 310 316 320 322 323 322 321 323 324 324 323 322 323 322
288 293 290 293 292 291 291 291 292 293 294 292 291 290 288 291 288 286 292 292 292 289 288 289 288 289 292 293 290 290 288 287 288 288 290 290 289 289 289 289 288 288 288 288 289 290 291 292 292 293 293 293 294 295 296 296 297 297 297 297 298 298 299 299 300 302 303 303 303 304 304 306 308 311 316 319 322 322 322 321 323 323 323 322 322 322
288 292 292 292 292 292 292 293 292 291 290 293 292 290 289 288 288 288 287 289 291 292 290 289 286 287 290 288 288 288 288 287 287 287 287 289 290 290 290 289 289 287 287 288 288 289 290 290 290 291 291 293 293 294 296 297 296 296 297 297 298 298 298 299 300 301 302 301 300 301 303 305 306 311 315 316 317 319 320 319 320 322 322 322 319 319
292 291 291 292 293 293 292 291 292 291 288 291 290 288 288 289 288 287 288 288 285 285 289 286 279 283 287 289 288 288 287 285 286 285 285 286 288 288 286 286 287 288 288 288 288 288 289 289 290 290 291 291 293 293 294 296 296 297 297 297 297 298 299 299 300 300 301 300 298 298 298 298 300 302 305 308 312 315 318 318 320 321 322 321 319 319
290 290 293 292 293 293 292 290 291 291 289 288 289 289 289 289 288 287 287 287 282 279 287 289 279 277 287 287 286 285 284 284 285 285 285 286 286 286 286 286 286 286 287 288 288 288 288 288 289 289 290 291 291 292 294 296 296 296 296 297 298 297 298 299 300 300 300 300 299 298 297 298 300 301 304 307 311 314 317 319 320 320 321 320 318 317
290 291 292 293 292 291 290 289 291 291 290 288 289 289 290 288 287 287 287 287 284 289 290 288 285 279 279 286 287 285 284 282 283 283 284 285 285 285 285 286 286 286 287 287 287 288 288 288 288 288 289 290 291 292 293 294 295 296 296 297 297 297 297 298 299 300 301 300 298 298 297 298 298 299 301 304 307 312 313 317 318 318 319 319 320 319
290 292 291 291 290 290 289 291 291 291 290 289 288 290 288 287 287 287 287 285 285 283 279 284 287 280 282 286 286 285 281 281 280 282 283 284 285 285 285 285 286 286 287 287 286 287 287 288 288 289 289 290 291 292 292 293 294 296 296 297 297 296 296 297 298 298 300 300 299 298 297 296 297 298 300 303 306 309 312 314 317 317 318 319 319 320
291 290 291 291 290 289 290 289 289 291 287 289 290 289 289 289 289 288 285 284 283 280 276 282 285 279 279 284 284 282 281 278 279 281 283 284 284 284 284 285 286 286 287 287 287 287 288 288 289 289 290 290 291 292 293 293 295 294 295 295 295 295 295 296 297 298 299 300 300 298 298 297 297 297 298 301 303 307 310 312 314 317 316 317 317 318
289 292 292 291 290 291 290 289 289 287 287 288 287 289 287 287 286 286 285 283 281 276 279 283 282 279 272 280 279 279 278 279 280 281 283 283 284 284 285 285 285 285 286 286 287 287 288 289 289 289 289 289 290 291 292 292 292 293 295 294 294 295 295 295 296 296 298 299 299 299 298 297 296 297 297 298 299 302 306 308 310 314 316 317 316 317
291 292 292 292 292 291 292 290 290 289 288 290 287 284 283 283 284 281 281 282 274 275 280 282 279 279 270 277 279 280 281 281 281 280 281 282 283 283 284 284 285 286 286 286 286 286 287 287 288 289 288 289 289 290 291 291 292 292 293 293 293 293 294 295 295 295 296 298 299 299 299 297 297 297 297 297 297 299 302 306 308 310 315 316 316 316
289 289 290 292 292 291 291 290 290 289 289 288 285 284 278 275 277 274 279 273 276 275 280 280 279 275 277 281 281 281 281 282 282 282 282 282 282 283 284 285 285 286 285 285 286 286 286 287 287 287 288 288 289 289 290 290 291 291 292 292 292 292 293 294 294 295 295 297 298 298 298 297 297 296 297 296 297 299 299 301 304 307 309 314 314 314
286 288 288 291 292 290 291 286 285 285 285 284 282 280 276 272 271 269 273 275 275 279 280 278 280 274 279 281 283 281 281 283 283 283 284 283 283 283 284 285 285 285 285 285 286 286 286 286 287 287 288 288 288 289 289 289 290 291 291 291 291 291 292 293 294 294 294 295 297 299 298 298 297 296 296 296 296 297 298 300 302 305 307 310 312 313
281 281 286 289 287 290 288 286 285 284 283 283 285 282 277 275 272 267 272 268 269 272 276 280 275 273 275 279 282 282 283 284 284 284 284 285 284 284 285 285 285 284 285 285 285 286 286 286 287 287 287 288 288 289 289 289 289 290 290 291 291 290 291 292 292 294 294 294 296 297 299 298 297 296 296 296 297 296 297 298 299 302 304 306 312 314
282 283 286 287 286 287 285 286 287 285 284 283 283 284 279 277 282 273 274 271 272 271 271 275 273 279 278 283 283 283 284 283 284 283 284 283 284 284 283 283 283 284 284 285 285 285 286 287 287 287 287 288 288 288 289 289 289 289 289 289 290 290 291 291 292 293 294 294 295 297 298 298 297 296 296 296 297 296 297 297 298 299 302 304 308 314
282 280 285 286 287 283 283 286 286 287 277 282 280 277 280 283 279 275 275 276 273 272 270 278 276 280 282 280 279 283 282 282 282 282 282 282 283 283 282 283 283 284 284 285 285 285 285 286 287 287 287 288 288 288 288 288 289 289 289 289 289 290 290 291 291 292 293 294 294 296 297 298 297 296 295 295 296 297 297 297 297 297 299 302 304 312
281 282 285 286 283 283 285 285 284 284 286 282 277 279 283 285 280 276 269 272 271 267 269 274 272 274 275 271 280 280 279 280 281 281 281 282 282 281 282 282 283 283 284 285 285 286 286 287 287 287 287 287 287 287 287 288 288 289 289 289 288 289 290 290 291 291 292 292 293 295 297 297 297 296 296 296 296 297 296 296 296 296 297 298 300 305
285 280 284 284 283 283 285 286 283 284 286 281 279 285 277 272 272 276 270 265 266 266 267 271 273 274 276 275 277 277 277 278 279 280 280 280 280 281 281 282 283 284 284 284 284 285 285 285 286 286 286 287 287 287 287 287 288 288 288 289 289 289 290 290 291 291 292 293 294 296 297 297 297 296 295 296 296 296 296 295 295 295 295 296 297 299
287 278 280 282 283 283 285 283 277 279 283 282 283 280 283 277 275 269 274 271 271 266 267 268 272 269 276 275 276 277 278 278 279 279 279 280 280 281 281 282 282 283 283 284 284 284 285 286 286 286 285 285 285 286 286 287 288 288 288 288 289 290 290 290 290 291 290 292 293 295 297 297 297 296 296 296 296 296 296 296 296 294 294 295 295 296
282 286 276 281 282 282 278 282 280 281 277 277 278 277 277 277 278 276 274 270 269 266 266 266 265 271 275 279 278 278 279 279 279 278 279 280 281 281 282 282 282 283 283 283 284 284 284 285 285 285 285 284 285 285 284 281 280 282 285 287 288 289 289 289 290 290 290 292 292 294 296 296 296 296 296 295 296 295 296 296 295 294 294 293 294 295
280 282 277 279 278 278 280 282 281 281 282 279 278 276 276 273 271 268 267 274 267 269 265 266 264 272 278 281 280 279 280 280 280 280 279 280 281 281 282 282 283 282 283 284 284 284 284 284 283 283 283 282 281 280 279 280 281 280 282 284 283 283 283 288 290 290 290 291 292 293 294 296 296 296 295 295 295 295 295 295 295 295 293 292 293 294
282 282 279 276 279 279 279 279 281 282 282 281 280 277 278 277 275 271 265 269 270 272 271 269 266 268 278 280 281 281 281 280 281 281 280 280 281 281 282 283 284 283 283 283 283 283 282 282 282 281 280 278 278 278 278 277 277 277 278 280 280 281 283 284 285 289 290 290 291 291 294 295 295 295 295 294 294 294 295 295 295 294 292 292 292 293
284 276 275 278 278 277 278 280 280 281 281 278 279 279 278 275 276 273 272 273 269 270 268 269 266 270 279 281 282 281 281 281 281 281 280 280 281 281 281 282 282 282 282 283 283 283 282 282 281 280 278 277 276 276 276 277 276 276 276 277 276 277 279 282 284 285 286 289 291 291 292 293 295 295 294 294 294 294 295 295 295 294 293 292 292 292
277 280 276 274 274 273 273 276 277 279 278 277 276 278 279 278 277 276 276 275 267 270 269 267 262 268 279 282 281 281 281 280 280 281 281 280 281 281 281 282 282 281 281 281 281 280 280 279 278 277 277 275 276 276 276 275 275 276 276 276 276 276 277 278 280 281 283 284 288 291 291 292 295 294 294 293 293 293 294 294 294 294 292 292 291 291
280 279 277 272 269 268 268 269 271 272 275 277 278 276 278 276 276 273 269 271 267 270 271 267 267 274 278 280 279 280 279 279 280 280 281 282 281 280 280 280 280 280 280 280 280 279 278 277 278 277 276 276 276 274 275 276 276 275 275 275 276 275 276 277 278 278 279 280 281 284 289 291 293 294 294 293 292 293 293 293 294 293 292 292 290 290
278 279 278 277 274 272 274 275 277 277 276 273 275 276 275 277 277 276 274 270 267 270 269 271 272 272 274 276 277 278 278 278 278 279 279 280 280 280 280 280 280 280 279 279 279 278 277 276 275 274 275 274 274 275 274 273 273 274 274 274 274 275 275 276 276 277 278 279 279 280 282 284 289 292 293 292 291 292 292 293 292 292 291 291 290 289
278 276 278 278 277 277 277 276 277 277 274 276 275 275 276 275 276 273 271 268 274 270 266 273 274 271 272 275 277 277 278 278 279 279 279 280 280 279 279 279 280 279 279 278 277 276 275 275 275 275 273 274 274 273 272 273 273 272 273 272 273 274 274 275 275 276 276 277 278 279 281 282 286 289 290 289 289 289 290 292 292 292 291 290 289 289
278 275 277 278 276 278 278 277 277 276 276 276 275 275 274 276 274 270 271 274 274 269 267 272 274 272 274 276 277 278 278 278 278 279 280 280 279 279 278 278 277 277 276 276 275 275 274 273 272 272 273 272 272 272 272 272 271 272 272 272 272 273 273 274 275 275 276 276 276 277 279 281 282 283 284 285 286 287 288 289 292 292 290 289 289 289
279 276 276 277 274 276 275 276 277 275 275 276 275 276 276 276 275 275 274 275 274 272 274 274 274 273 276 276 278 278 280 280 280 281 280 279 278 278 278 277 276 275 274 274 274 274 274 273 274 273 271 272 272 271 271 271 271 271 271 272 272 273 274 274 274 274 275 275 276 277 278 279 281 283 284 285 286 287 287 288 290 289 288 288 288 289
278 274 276 276 273 274 276 277 277 276 275 273 275 276 276 276 275 276 275 275 275 274 275 275 273 272 277 280 279 280 280 281 280 279 278 278 277 277 276 275 274 274 273 273 273 272 272 272 272 271 271 270 270 270 270 270 270 271 271 271 272 273 274 275 274 274 275 275 276 277 278 278 279 281 281 283 283 284 285 286 287 288 288 288 288 288
280 275 277 274 271 271 275 274 275 275 275 274 273 274 275 274 273 275 274 275 274 272 273 273 271 272 277 279 279 280 279 279 278 277 277 277 277 277 275 273 273 272 272 273 273 272 271 270 271 272 270 269 269 270 269 269 270 270 270 271 272 273 274 274 274 274 274 275 276 277 277 277 278 279 281 283 284 285 285 286 287 287 287 287 287 288
279 276 273 273 270 271 273 274 273 273 271 269 271 274 276 276 276 276 276 276 275 276 272 269 271 276 277 279 277 278 278 278 277 277 276 276 277 277 274 273 272 272 271 271 271 271 271 270 270 269 269 269 269 269 269 269 269 269 270 270 272 273 273 273 274 274 274 275 275 276 277 277 278 278 279 281 285 286 287 287 287 287 287 287 287 288
278 277 274 276 270 270 271 271 273 269 264 266 277 278 277 274 274 273 273 275 276 277 275 276 276 278 278 278 277 276 277 277 277 277 278 276 276 275 273 272 272 271 272 272 272 271 270 269 269 269 269 269 269 269 269 269 269 269 270 271 271 271 271 272 273 273 273 274 274 275 276 277 277 278 279 281 282 283 284 286 286 287 288 288 288 288
276 276 274 276 270 270 269 269 267 263 265 276 277 279 278 277 277 275 276 276 277 277 277 276 277 277 278 278 278 278 278 278 278 277 277 278 277 274 272 271 271 271 270 270 269 269 269 269 269 268 268 268 268 269 268 268 269 269 269 270 270 271 271 271 272 273 273 273 274 275 276 277 278 278 280 281 283 284 284 285 286 287 288 288 288 288
276 274 275 273 272 271 269 269 262 265 272 274 277 279 280 278 278 276 274 277 277 277 277 276 277 278 278 278 279 279 278 277 277 277 278 278 277 274 272 271 271 270 269 269 269 268 268 268 267 267 267 268 267 267 268 267 268 268 268 269 269 269 270 271 271 272 273 273 274 274 276 276 277 278 278 280 283 284 284 285 286 287 288 288 288 289
279 277 275 270 275 265 270 268 269 273 272 275 274 275 276 274 275 274 269 273 277 277 277 276 277 278 278 278 278 277 276 275 274 277 280 278 276 274 273 272 271 270 270 270 269 268 269 268 267 267 267 267 267 267 267 267 267 267 267 267 268 269 269 269 270 271 273 273 274 275 276 277 277 277 278 279 281 284 285 286 287 288 288 288 288 288
280 274 276 270 269 272 266 266 268 267 264 270 276 278 280 279 279 278 275 271 278 278 279 277 276 277 277 277 276 275 274 272 272 275 278 277 275 273 273 272 272 271 270 270 271 270 269 268 267 267 267 266 266 266 266 266 266 266 266 266 267 267 268 268 269 271 272 273 274 275 276 277 277 277 277 278 280 281 283 287 288 288 288 288 288 288
279 279 277 274 270 269 267 265 265 262 267 276 275 277 279 279 279 278 273 269 277 277 278 277 276 277 276 275 274 273 271 269 270 274 277 275 273 273 271 271 271 270 270 269 269 268 268 267 267 267 266 266 265 265 266 266 265 265 265 265 266 266 267 267 269 269 270 271 273 275 276 277 277 277 277 277 280 283 284 285 286 288 289 289 289 288
274 275 274 271 269 269 267 266 265 269 269 275 277 278 278 279 279 275 265 267 276 278 278 277 276 276 276 274 273 272 271 268 270 273 275 273 272 272 271 270 269 269 269 269 269 268 268 267 266 266 265 264 265 266 265 265 265 264 264 265 265 265 266 267 268 269 270 271 272 274 276 277 277 278 278 278 279 281 282 285 287 288 288 288 289 289
271 272 273 268 270 270 270 267 269 270 276 279 278 280 279 280 277 266 263 272 278 279 278 277 276 276 275 273 273 270 273 274 274 274 273 272 271 271 271 271 270 269 268 268 268 270 267 266 266 265 265 265 265 265 265 264 263 263 264 264 264 264 265 266 267 268 269 270 271 273 275 277 278 278 278 280 281 283 284 285 286 287 287 287 288 289
271 270 270 273 269 268 270 268 267 270 276 278 279 280 280 275 267 267 276 279 279 278 278 277 276 276 274 273 273 273 273 274 273 272 271 271 270 270 270 269 269 268 269 269 269 268 266 265 265 264 265 265 265 265 264 263 262 263 263 263 263 264 265 266 267 267 268 268 269 271 274 277 279 279 279 281 282 283 284 285 286 286 287 287 288 287
271 268 268 269 271 271 270 265 264 262 274 280 279 277 279 271 273 279 280 279 278 277 276 276 276 274 273 272 273 272 271 271 271 270 270 270 269 268 268 267 267 266 266 266 266 267 265 264 263 263 263 264 264 264 264 263 262 262 262 262 263 265 265 266 266 266 267 268 268 270 272 275 278 280 280 280 282 282 283 285 286 286 286 286 287 287
278 269 271 271 274 265 267 263 264 273 278 281 279 273 277 279 281 281 280 278 279 277 276 276 275 274 272 271 270 270 270 270 269 269 269 268 268 267 267 267 266 266 266 266 266 265 265 263 263 262 263 263 264 263 263 263 261 261 261 262 264 265 265 265 265 266 266 267 268 270 271 274 277 281 282 282 282 283 283 284 284 285 286 286 287 287
279 273 277 270 276 270 269 272 277 279 279 281 281 280 281 281 281 281 280 279 278 277 275 274 274 273 271 270 269 269 268 269 268 268 267 266 266 266 266 265 265 265 265 264 264 265 264 263 262 261 261 262 262 263 263 263 261 261 260 262 264 264 264 264 264 265 265 266 267 269 271 274 276 280 282 283 283 283 283 284 284 284 286 287 287 287
280 280 279 277 275 279 279 279 281 279 279 279 281 282 280 277 277 277 277 277 277 277 275 274 273 271 270 269 267 267 268 268 267 266 266 266 265 265 265 265 264 265 264 264 264 264 263 262 261 261 260 261 262 262 263 262 261 260 261 263 263 263 263 263 263 264 265 266 267 269 271 273 275 278 283 284 284 284 285 285 285 286 286 287 287 288
279 279 277 275 278 275 271 280 278 279 280 280 280 278 277 278 277 277 277 277 277 275 272 272 271 270 269 267 266 267 267 267 265 265 265 264 264 264 263 263 263 263 263 262 263 263 261 260 260 259 259 259 261 262 262 261 261 261 262 262 262 263 263 263 263 264 265 266 268 269 271 273 275 278 282 285 286 286 287 287 287 286 287 287 287 287
274 281 276 276 276 274 274 278 280 280 281 281 280 277 276 276 276 276 277 276 274 272 271 270 269 267 267 266 267 266 265 265 263 263 263 263 262 262 262 262 262 262 263 263 262 262 261 260 259 259 259 259 260 261 261 260 260 261 261 262 262 262 262 262 262 263 265 267 269 270 272 274 277 279 281 284 286 286 287 287 287 287 287 287 287 287
278 279 273 277 275 277 279 280 280 280 279 279 281 281 281 278 276 275 273 272 271 270 269 269 269 268 267 267 266 265 263 263 263 263 262 262 261 261 262 262 262 262 262 261 261 261 260 259 258 258 259 259 260 260 260 260 260 260 261 261 261 261 261 261 263 264 267 269 270 272 274 276 278 279 281 283 285 286 287 287 287 287 287 288 289 289
277 274 278 276 273 273 274 276 279 273 273 278 279 279 278 277 276 274 272 270 270 268 268 267 267 267 266 266 264 263 262 262 262 262 261 261 261 261 261 261 261 261 261 261 261 261 260 259 258 258 258 259 260 259 259 259 259 260 261 261 261 261 260 261 263 266 269 271 273 274 276 278 279 281 282 283 285 286 286 287 288 288 288 288 288 289
276 277 277 274 274 273 278 280 281 280 280 280 281 279 277 276 275 273 271 271 270 269 268 267 265 265 264 264 264 262 261 261 261 262 260 260 260 261 261 260 260 259 259 260 259 259 259 258 258 258 258 258 259 259 258 258 259 259 260 260 260 260 260 261 263 266 268 270 271 273 275 279 281 282 282 283 285 286 286 287 287 289 289 289 288 289
Wind_Speed
3 4 2 4 5 6 5 2 4 5 5 7 6 7 9 10 9 6 11 7 10 16 6 12 12 12 9 11 10 14 14 14 13 12 11 10 10 10 11 11 13 15 14 14 15 15 16 17 16 16 15 16 17 17 18 19 20 19 18 18 19 16 16 15 14 14 14 14 14 14 14 15 11 9 11 14 16 14 15 14 14 14 14 15 16 16
2 2 1 1 3 5 4 3 2 4 4 4 7 7 10 9 10 10 15 5 7 11 15 14 18 10 7 12 9 13 17 15 12 11 11 11 10 9 11 12 14 13 11 15 15 18 17 16 18 17 15 17 19 19 20 20 21 21 20 18 18 15 16 14 15 14 13 13 12 13 14 14 15 13 10 12 12 14 13 18 18 13 14 12 14 14
5 4 4 2 1 1 1 2 1 3 7 4 5 7 8 7 12 12 6 2 9 12 15 17 18 8 9 8 15 14 15 12 12 10 10 10 11 11 11 13 16 18 17 18 18 19 19 19 20 18 16 16 16 16 15 16 17 18 17 17 17 16 16 15 14 14 14 14 14 14 14 14 14 13 13 12 11 12 15 15 18 18 15 15 14 13
4 1 2 1 1 2 3 2 2 3 3 4 5 6 6 8 10 9 3 4 12 6 10 12 16 11 5 12 14 12 11 12 12 11 9 9 12 12 13 15 17 19 20 22 21 21 21 20 19 18 17 16 15 15 14 14 15 13 14 15 16 17 16 15 15 14 16 16 16 15 14 15 14 15 14 14 13 15 15 17 17 17 20 18 16 14
7 7 3 3 2 1 5 1 3 5 7 3 2 2 6 9 8 5 14 18 13 3 7 11 15 6 12 8 7 8 9 11 11 12 14 12 11 11 12 14 17 19 19 20 21 21 21 22 21 20 19 17 16 15 14 13 13 11 15 17 16 14 14 14 15 16 16 15 15 14 16 14 13 12 11 10 11 14 15 15 13 17 19 14 14 15
6 2 1 0 2 3 5 6 4 3 7 1 4 2 6 8 11 13 14 16 14 8 6 17 13 2 6 5 10 7 5 11 12 16 17 15 13 14 16 17 18 17 18 19 21 21 21 21 21 21 22 22 19 18 17 15 14 14 13 16 16 14 13 13 14 15 13 13 14 14 15 16 15 15 14 14 12 11 12 14 13 14 14 15 13 13
3 1 2 1 2 4 3 3 2 2 4 6 1 2 6 8 10 12 14 10 13 13 6 11 7 13 6 4 10 8 9 9 11 13 13 12 13 14 14 16 18 20 21 22 24 25 27 27 26 25 24 23 22 21 18 16 16 16 15 14 15 15 13 12 12 14 12 13 13 14 13 13 14 15 14 14 15 14 13 13 16 13 14 17 16 16
3 1 2 2 4 4 5 5 3 2 2 3 3 5 6 8 12 13 11 7 12 8 9 5 8 11 10 3 10 9 8 9 12 13 14 13 14 17 18 20 21 21 22 21 24 26 26 26 26 27 25 22 22 21 19 18 17 18 16 15 15 14 14 13 13 13 11 10 12 14 14 12 13 15 17 18 16 15 14 15 14 14 13 14 16 16
0 2 3 4 1 3 3 2 3 1 3 2 7 2 7 8 10 11 10 11 9 8 9 1 6 5 4 6 12 3 8 12 13 14 14 16 17 19 21 21 21 21 23 25 24 26 26 26 27 26 26 25 24 22 20 18 17 16 16 15 15 17 16 15 16 13 12 11 10 11 11 12 11 13 13 15 14 14 14 15 15 12 14 14 16 14
1 2 2 1 3 3 4 3 3 0 1 2 4 4 7 7 9 9 8 11 7 4 10 7 1 6 10 4 4 8 6 10 12 12 13 13 15 17 18 22 25 25 23 23 25 24 25 26 26 25 26 26 24 21 21 21 19 18 17 17 18 19 17 16 17 15 14 13 10 10 11 14 13 12 13 13 15 15 14 15 16 15 13 14 16 16
1 2 1 1 1 2 5 3 2 4 2 7 5 7 8 11 10 8 7 3 4 5 8 4 5 3 7 2 2 5 4 5 9 10 12 16 19 22 23 24 23 22 22 21 23 24 25 25 26 25 26 26 26 23 23 22 21 20 18 18 20 20 18 18 18 17 15 13 11 10 11 12 13 14 13 13 15 16 16 14 15 17 15 13 13 13
2 3 3 2 1 2 3 3 3 3 5 3 5 8 11 7 5 8 3 1 1 5 5 7 6 3 7 2 7 7 5 7 10 13 16 18 22 22 22 21 21 21 21 23 23 24 25 26 26 25 26 27 27 26 25 22 23 22 20 20 22 22 20 19 18 18 16 13 12 12 11 12 11 12 11 12 14 15 19 18 16 15 15 15 15 15
3 3 2 3 1 1 3 2 3 2 1 4 6 7 8 8 8 4 2 4 3 6 5 6 4 9 9 3 8 7 6 8 12 11 16 19 21 21 20 21 19 19 23 23 23 23 24 24 25 25 26 26 26 24 26 26 25 24 22 22 23 24 22 20 19 18 19 15 12 12 11 10 9 10 11 11 12 12 13 15 16 15 15 13 14 17
1 3 4 0 1 2 3 4 1 2 6 6 5 3 4 8 7 10 8 5 7 4 8 3 6 11 16 6 8 6 5 6 11 14 15 14 17 19 20 19 19 20 22 23 23 23 23 24 24 25 26 26 26 27 27 26 25 24 23 24 24 26 25 22 19 19 19 18 15 13 11 9 9 10 9 9 10 11 11 13 15 14 13 16 14 14
4 3 7 7 4 1 2 4 3 2 3 5 4 0 2 2 4 9 6 7 8 13 11 11 4 4 4 5 8 6 3 8 11 13 11 12 18 19 19 20 20 21 22 22 23 23 25 26 28 26 27 26 26 29 27 25 25 25 25 23 25 26 27 24 23 19 20 18 17 14 11 9 8 9 9 8 7 10 11 12 15 15 14 14 15 12
6 5 4 5 1 3 3 2 1 3 2 5 1 2 3 4 1 9 3 4 9 13 12 6 6 2 3 10 8 4 7 13 15 14 14 18 19 20 20 20 20 21 23 23 25 26 27 26 26 25 27 29 28 30 27 27 25 25 26 27 28 27 26 25 24 21 18 18 16 14 14 11 9 8 9 8 8 8 9 10 12 17 16 14 16 17
1 5 6 4 1 6 3 1 2 4 2 3 2 3 1 3 3 5 5 5 4 6 15 4 8 3 8 8 7 5 13 14 14 14 17 20 21 22 21 21 22 23 24 25 25 25 28 26 30 32 31 29 30 29 30 30 28 29 29 28 28 27 25 25 24 23 21 19 18 16 15 13 10 9 9 9 10 10 9 9 10 13 16 16 15 15
3 1 3 3 4 6 2 6 6 5 3 2 3 1 3 5 4 2 4 4 5 7 9 3 11 13 4 6 4 6 13 15 16 18 22 23 24 24 23 23 25 26 27 28 29 28 28 27 27 28 29 31 31 32 32 33 30 27 25 27 27 27 27 25 24 24 22 20 18 17 16 14 11 10 9 8 9 8 8 9 8 11 15 15 15 17
2 5 5 2 8 3 3 1 6 5 4 2 2 2 2 3 2 4 3 4 8 9 10 12 12 10 8 5 5 11 16 18 20 23 25 27 26 25 25 28 27 28 28 27 27 26 23 28 32 34 34 33 32 31 31 29 29 28 27 26 25 27 26 26 23 22 19 19 14 12 14 15 12 9 8 8 8 7 8 10 10 13 14 16 15 16
2 3 1 2 3 4 0 0 3 4 3 4 1 1 3 1 2 4 1 1 3 12 7 10 10 12 1 2 5 12 14 15 20 22 24 25 25 24 25 25 26 27 28 28 29 30 31 32 33 33 32 32 32 31 29 29 26 28 27 26 25 25 24 24 25 23 22 19 16 14 14 15 12 10 9 8 7 7 7 9 8 12 15 14 14 15
1 2 4 6 1 1 4 7 4 5 4 6 6 5 4 3 1 3 3 4 6 5 5 10 14 4 4 2 9 12 12 17 19 22 22 22 23 25 25 25 27 29 30 30 29 29 32 32 31 33 31 28 29 26 23 25 27 28 28 28 28 27 26 25 24 23 21 19 18 17 16 16 13 12 9 8 8 8 8 8 7 10 12 13 14 13
1 4 4 5 4 7 3 6 2 3 4 6 7 7 6 4 2 3 7 5 1 4 5 6 14 13 2 5 4 7 11 17 21 22 22 22 24 26 24 26 30 28 29 28 28 30 29 29 31 31 28 25 25 23 27 22 22 25 24 21 23 23 26 28 24 21 21 19 17 18 16 15 13 10 9 9 8 7 7 7 7 9 12 14 14 13
1 1 2 5 4 3 3 6 4 6 6 5 5 4 7 4 5 2 6 2 1 7 3 10 11 15 4 3 3 11 17 20 19 21 22 22 25 25 26 27 26 30 31 31 31 29 28 27 27 26 27 28 27 25 24 24 22 22 23 23 22 24 22 20 24 25 21 20 20 19 16 14 13 10 10 9 8 8 7 7 7 9 10 13 14 14
2 2 1 5 3 4 1 3 4 4 7 5 3 4 6 6 5 4 6 6 7 7 7 9 13 11 3 4 7 15 18 17 17 20 23 22 23 26 28 31 31 30 31 30 27 27 28 26 26 26 27 26 26 26 27 23 23 22 22 23 23 24 24 24 21 20 23 23 22 21 19 17 13 11 10 9 8 9 8 7 7 7 9 11 12 14
2 3 5 2 2 4 3 2 3 0 1 4 4 7 7 4 5 4 5 4 4 10 12 8 13 9 4 7 14 16 18 21 21 21 21 24 23 23 27 24 25 29 29 31 32 32 32 31 29 27 28 27 30 29 26 26 25 25 24 21 21 22 23 23 21 23 22 22 25 22 20 19 14 12 11 10 9 8 7 8 7 8 10 10 11 14
2 2 3 3 6 8 6 4 3 6 8 6 5 6 8 9 7 3 5 5 8 4 12 10 12 16 16 17 19 18 20 21 20 22 23 21 22 24 25 26 27 27 27 29 30 31 32 30 28 28 30 28 26 25 29 28 26 24 24 24 22 22 22 22 21 21 21 21 22 23 23 19 17 14 12 11 9 8 8 7 7 8 10 8 11 13
2 1 6 9 8 8 7 2 5 5 3 7 7 9 10 10 10 8 3 6 11 9 11 15 14 19 22 20 20 21 19 21 22 25 26 24 25 27 26 25 25 25 26 29 29 28 29 31 32 30 30 27 28 28 25 24 26 25 24 24 24 22 22 22 20 21 21 21 20 19 19 21 20 18 14 11 10 8 6 6 8 9 11 9 9 12
1 2 9 11 14 10 6 5 3 4 10 10 9 11 10 12 9 9 9 10 9 8 15 11 8 11 19 20 20 21 19 18 21 24 25 22 23 25 25 25 27 26 27 28 29 31 31 32 33 31 31 34 29 26 25 27 24 24 24 24 23 22 21 19 21 21 21 21 20 19 19 18 20 18 16 14 13 12 10 7 7 9 11 9 11 11
3 3 3 7 9 8 6 8 4 4 9 9 11 14 12 11 11 13 14 16 14 11 16 15 17 19 20 19 20 18 17 19 21 24 23 20 21 26 27 27 26 27 29 29 30 31 33 31 31 35 36 30 30 32 29 24 24 25 24 23 23 23 22 22 21 22 21 21 20 19 18 17 17 18 20 20 21 18 15 11 9 9 11 11 11 10
1 4 4 4 6 5 5 9 8 8 8 10 13 16 14 11 14 14 15 16 17 17 18 18 20 24 20 18 16 15 17 18 18 19 20 21 23 25 26 25 27 27 29 29 30 31 30 33 36 36 33 34 33 31 29 28 27 25 24 26 24 23 23 21 21 21 21 21 20 20 19 18 18 18 18 18 17 16 14 14 11 12 11 12 11 11
4 2 7 2 1 6 9 10 11 9 9 13 14 16 16 14 14 13 12 13 15 17 18 18 19 20 13 11 14 17 16 15 15 18 21 21 22 23 22 25 25 26 29 30 31 31 33 33 33 34 35 33 31 32 30 28 26 27 27 24 26 25 22 23 23 21 21 22 21 20 19 18 17 18 19 18 18 17 17 18 15 13 11 11 11 11
5 3 4 1 3 4 7 10 8 5 7 10 15 19 15 12 12 9 8 8 9 12 15 16 14 12 10 13 16 17 19 19 17 17 18 19 23 23 23 24 24 25 28 31 33 34 34 34 37 38 34 33 33 32 29 27 28 26 26 26 24 25 24 23 24 23 22 22 22 21 21 19 18 18 18 16 15 15 15 14 12 11 11 10 10 11
6 4 3 2 4 5 6 6 4 1 5 8 14 16 12 9 8 8 9 9 12 13 11 10 12 12 15 15 19 20 21 21 18 18 18 21 20 21 22 25 24 24 24 28 30 32 34 34 33 33 33 32 32 30 30 30 27 27 26 26 25 23 24 25 23 24 22 21 21 22 20 19 18 18 17 17 15 11 9 8 10 11 11 11 10 9
4 5 2 3 4 2 5 2 3 2 8 7 3 6 6 6 5 7 8 9 11 10 10 10 13 13 14 15 17 18 19 19 18 18 16 16 17 17 20 22 24 25 27 30 31 31 31 29 29 30 33 33 31 30 30 27 26 26 25 25 25 24 24 24 24 23 24 21 21 21 21 20 18 18 18 15 15 16 15 13 12 12 11 9 8 10
8 5 4 3 3 2 4 2 2 10 10 3 3 2 3 4 6 9 11 10 11 13 14 14 12 11 14 13 14 15 17 19 18 20 19 14 9 11 16 21 23 25 26 26 29 32 34 34 34 36 35 31 31 29 27 28 25 26 25 24 25 24 24 24 23 23 23 21 21 20 20 19 18 18 17 16 15 14 14 14 13 13 10 8 10 11
7 7 4 3 2 2 3 5 5 4 4 3 7 8 0 4 8 7 12 11 14 12 10 10 9 11 13 14 13 12 15 18 18 18 13 5 10 10 12 15 21 23 26 25 27 30 30 32 34 33 32 29 28 27 26 26 26 26 26 25 25 24 23 23 23 23 23 22 19 19 20 19 19 18 17 17 15 14 14 14 13 13 10 10 10 10
9 4 5 3 4 5 3 6 10 6 9 10 7 3 7 3 2 4 9 8 5 8 5 6 10 11 13 13 12 12 15 16 15 11 3 11 15 15 15 17 18 20 22 24 24 26 29 30 30 29 28 30 29 28 26 26 26 26 26 26 24 23 22 22 22 22 22 22 19 19 19 18 18 18 17 16 16 15 12 12 12 10 8 9 10 10
9 9 6 5 4 4 4 5 6 5 6 3 7 7 6 7 3 4 5 10 6 8 3 5 8 11 12 12 12 12 13 13 13 13 13 18 20 21 21 19 20 22 22 23 28 28 27 28 28 28 27 30 29 27 25 25 26 26 25 25 24 23 23 22 22 22 22 21 20 18 18 18 17 17 16 15 16 15 15 11 9 9 7 9 10 10
7 7 6 7 5 2 3 5 6 4 3 5 12 9 8 6 4 4 1 9 7 6 4 3 8 9 8 9 12 11 9 12 13 14 14 20 22 21 21 21 22 23 24 25 24 26 29 28 29 28 27 27 28 28 29 29 28 25 25 25 24 23 23 22 22 22 21 22 22 21 19 17 17 16 17 16 16 13 13 13 11 9 8 8 8 10
7 8 7 9 7 7 3 5 8 3 4 2 7 7 10 7 7 2 5 3 8 6 6 3 6 8 8 8 7 7 6 12 15 15 16 19 20 20 18 20 21 22 24 26 26 25 27 28 29 30 30 31 30 30 30 27 24 25 24 24 23 22 22 23 22 23 22 22 21 20 19 16 17 15 15 15 15 14 13 11 10 9 8 7 7 8
8 7 11 12 11 10 12 10 6 5 7 11 11 2 9 10 7 3 8 3 3 1 2 3 5 6 5 7 5 7 7 8 12 15 16 18 20 21 20 19 19 20 21 22 24 29 26 24 24 26 28 27 28 27 26 24 23 24 24 24 23 24 24 23 23 23 22 21 21 20 20 16 16 16 15 14 13 11 11 11 11 9 8 8 7 8
6 4 4 7 10 12 11 9 7 8 11 9 5 7 8 5 5 9 1 4 1 4 2 3 6 6 4 7 6 8 11 11 12 13 15 16 17 18 20 21 22 22 20 19 22 22 23 25 25 26 27 26 27 26 25 27 26 25 25 24 25 27 24 23 23 22 22 21 21 21 20 17 16 15 13 13 12 11 11 10 10 10 9 8 8 9
11 8 8 10 5 6 7 5 1 7 2 8 11 5 9 5 5 3 1 3 4 3 4 4 4 5 4 8 8 10 12 13 13 14 15 15 16 17 19 21 22 23 24 25 27 27 26 25 27 28 27 25 26 24 23 21 25 25 24 24 27 25 23 23 22 22 21 21 21 21 20 19 19 16 11 12 12 12 12 10 9 8 8 9 9 10
8 4 4 6 8 6 7 7 9 8 5 8 10 4 8 10 2 1 0 4 5 3 3 4 4 2 3 6 9 10 11 12 13 12 15 16 15 16 17 18 19 20 21 21 20 22 25 26 27 28 27 25 23 23 21 22 23 24 27 27 25 25 24 24 22 21 21 20 20 20 18 18 17 14 12 12 11 11 11 11 10 9 9 8 8 8
13 10 4 5 7 8 6 8 6 3 9 9 5 3 5 5 2 4 4 4 3 3 3 2 5 2 3 5 8 9 11 11 12 12 14 17 17 17 18 19 20 21 22 23 24 26 24 21 24 27 30 26 26 24 22 21 24 29 30 27 26 25 24 24 23 21 20 20 19 18 17 16 15 14 12 11 11 11 10 11 9 9 8 7 7 7
3 1 3 2 6 1 4 5 3 5 7 7 4 3 6 4 2 4 5 4 4 2 3 4 3 3 3 3 5 7 8 11 13 14 14 15 16 16 16 18 19 20 20 20 20 23 24 23 22 24 27 29 27 26 22 22 23 26 27 26 25 24 24 24 24 23 22 19 17 17 16 17 17 16 14 12 10 10 9 9 7 7 7 6 6 6
5 5 4 7 4 6 6 10 13 12 10 9 6 1 2 2 6 6 6 5 3 3 3 2 3 3 3 3 5 9 11 11 12 13 13 14 15 15 16 17 18 18 21 23 24 23 22 24 24 26 29 29 27 25 24 26 22 23 24 25 25 25 25 24 23 22 20 18 16 16 14 15 12 12 12 9 8 8 8 7 7 7 7 6 6 6
5 8 6 9 8 9 8 5 4 3 3 5 7 5 5 6 7 6 5 3 2 2 2 3 2 3 3 4 5 6 10 10 11 12 12 12 13 14 15 16 19 20 20 19 21 22 24 23 25 26 28 27 25 25 26 24 25 25 25 24 25 24 24 23 20 19 18 19 15 13 12 12 15 15 11 10 8 7 7 6 6 7 7 6 6 6
4 8 4 6 7 8 7 6 8 4 6 9 9 7 6 7 9 8 6 6 4 4 4 3 4 4 3 5 4 5 9 10 9 11 13 13 13 13 14 16 17 18 19 21 21 21 21 23 24 25 27 25 23 24 25 26 25 25 26 27 26 24 23 21 25 20 16 14 12 12 11 10 11 10 10 10 7 6 6 6 5 7 6 6 6 6
4 9 6 4 5 7 8 10 6 3 4 4 7 8 7 8 10 9 7 6 6 6 5 5 5 5 5 5 4 5 8 9 9 10 13 12 12 14 16 16 16 18 18 18 18 21 23 22 22 24 26 23 23 23 25 26 25 24 24 25 25 25 23 23 21 20 18 15 12 11 11 10 9 8 9 9 8 6 6 8 11 8 7 6 9 13
9 10 9 9 7 7 9 8 6 7 7 5 7 6 7 9 9 10 10 10 8 7 6 6 5 5 6 6 5 5 8 9 10 9 11 11 12 12 13 16 17 16 17 18 19 20 22 23 23 23 24 22 22 23 25 25 24 24 24 26 27 25 23 21 18 17 17 17 17 18 16 13 12 9 8 8 8 7 6 5 6 13 15 13 10 11
Wind_Direction
287 2 358 349 342 342 337 311 295 306 303 292 270 272 291 296 294 273 301 339 1 340 339 329 327 337 324 353 35 86 74 62 63 67 67 59 52 46 39 33 20 14 10 360 357 358 357 357 356 354 351 348 346 350 349 347 346 345 345 343 344 343 342 340 341 341 338 335 330 326 314 307 294 258 250 234 226 221 217 212 212 211 204 204 200 198
239 310 167 9 331 316 317 293 252 268 227 276 304 303 313 305 303 306 291 337 351 2 309 336 326 346 337 340 79 87 73 62 57 65 61 50 44 40 36 25 17 6 357 354 354 353 354 354 354 353 350 346 346 347 348 350 348 344 341 342 340 340 341 342 340 336 332 329 323 317 313 306 298 292 255 242 239 228 222 219 214 207 206 200 201 193
327 324 94 67 9 131 137 189 226 296 315 305 322 313 295 318 316 287 247 7 356 331 310 336 322 338 332 325 94 82 79 77 70 66 63 48 37 33 25 17 4 359 356 352 353 350 349 349 349 349 347 342 339 334 337 341 338 339 339 338 337 337 339 339 340 336 333 328 323 315 306 305 298 286 284 269 236 230 230 224 222 210 196 191 198 186
320 47 87 45 156 198 173 132 291 285 232 347 332 319 318 332 351 324 163 352 324 291 303 331 308 307 320 92 89 85 86 82 72 64 59 49 40 34 23 10 0 356 353 351 351 350 347 344 341 340 340 337 332 330 331 334 333 332 332 331 331 333 335 335 336 333 331 327 319 314 309 307 299 294 292 282 263 242 229 227 221 217 211 203 200 192
270 330 68 116 122 264 350 339 349 335 313 81 51 345 324 332 319 280 309 317 314 242 354 329 312 307 141 127 101 93 88 69 45 45 44 43 42 30 12 6 4 356 352 349 347 347 345 343 343 341 338 333 330 327 326 326 327 327 327 329 326 324 326 328 333 334 333 331 331 329 323 318 312 302 288 281 266 248 234 231 228 220 209 201 200 191
258 48 337 218 57 41 15 332 27 334 297 274 127 359 307 298 304 311 311 328 321 306 90 16 332 3 93 101 147 135 84 50 33 32 26 25 26 13 8 0 356 355 352 350 347 346 344 343 341 341 340 339 331 330 327 322 319 319 319 321 324 320 318 321 326 331 332 331 332 334 333 330 325 315 308 300 290 267 243 233 226 227 213 198 191 189
314 78 3 29 58 33 10 298 27 254 289 287 109 305 298 299 299 305 318 340 306 307 356 29 300 286 296 42 134 108 74 52 38 32 24 20 14 6 3 0 357 355 351 350 348 347 347 346 343 342 341 338 332 326 322 317 316 318 318 316 314 315 312 312 313 323 326 328 332 331 327 321 316 311 302 298 295 289 270 244 232 220 213 208 186 187
153 87 83 66 20 356 322 293 83 312 281 263 65 292 299 299 311 312 312 291 274 295 300 229 230 267 293 296 130 107 81 45 27 23 18 13 5 3 360 359 356 355 353 350 347 346 344 341 338 335 334 332 329 326 320 314 309 308 311 310 310 308 309 308 310 316 321 322 326 325 324 323 322 317 310 306 299 294 290 270 235 218 215 214 205 190
253 93 51 357 7 286 283 36 357 26 266 2 330 295 282 302 301 300 298 289 290 318 305 234 201 265 265 123 118 85 38 15 16 11 7 5 4 358 357 355 352 352 352 352 346 342 338 335 333 331 329 327 325 324 319 310 303 301 303 305 306 309 309 310 311 310 313 311 314 316 316 320 318 313 313 309 299 290 288 274 253 224 209 208 210 205
46 49 31 249 257 265 102 88 28 206 247 338 324 259 242 265 274 266 274 286 300 321 288 290 260 268 275 264 275 92 71 12 5 4 2 3 357 354 352 353 355 354 350 344 338 334 332 329 326 325 323 323 323 321 317 309 303 301 301 302 303 304 307 308 307 305 303 304 303 306 313 314 317 320 317 317 312 303 296 286 267 240 216 209 208 204
328 317 314 278 320 42 134 100 36 35 335 289 256 308 329 309 293 285 272 305 297 243 260 251 86 352 287 298 312 37 45 14 358 358 357 355 355 356 357 354 347 343 341 336 330 329 326 322 320 322 321 320 319 317 315 313 309 302 298 300 299 298 300 303 304 303 298 300 298 300 305 309 314 317 317 320 321 318 307 295 288 262 230 209 206 205
27 126 173 57 22 81 119 135 181 230 257 282 11 360 319 284 212 253 283 210 128 284 134 120 132 343 288 252 99 92 71 27 14 3 354 355 355 354 351 345 340 338 333 327 326 325 322 320 319 319 319 318 316 314 313 311 308 305 299 298 298 295 295 297 299 300 297 293 293 293 296 304 307 310 314 316 317 318 314 308 296 290 259 222 203 198
164 125 37 331 22 271 212 252 174 197 88 21 20 11 350 314 330 306 185 285 240 289 128 162 12 314 250 354 130 117 54 28 16 4 1 358 351 344 341 337 333 333 328 324 323 321 318 317 317 317 317 316 316 313 310 309 308 304 298 295 295 294 292 291 293 294 295 290 286 289 289 294 301 301 307 310 308 315 316 313 308 301 290 256 214 198
234 92 316 359 224 37 224 226 257 214 43 29 31 8 348 333 329 297 311 282 282 241 139 152 9 263 272 240 151 93 55 23 8 10 2 351 338 335 334 329 329 329 324 322 321 319 317 315 315 315 315 314 312 311 309 306 304 302 299 296 293 292 292 289 286 288 291 289 286 281 279 282 293 295 298 303 305 310 310 313 306 302 296 278 241 210
255 221 191 182 170 14 40 38 30 12 29 70 112 210 327 279 287 296 326 325 314 293 284 267 252 219 309 112 147 100 59 4 11 3 350 338 335 332 329 325 326 326 322 322 322 321 320 317 317 316 313 310 309 308 308 306 303 301 298 296 294 292 291 288 285 284 283 287 286 281 270 270 279 290 293 291 295 303 307 309 309 303 299 295 267 220
232 284 60 14 36 300 107 3 308 82 125 116 41 204 236 238 287 258 360 312 311 314 316 145 197 223 292 125 149 147 357 11 2 350 339 332 331 331 326 326 325 325 323 323 322 322 321 319 316 315 311 308 306 307 305 303 303 301 299 296 292 290 286 286 284 279 277 281 282 279 271 264 266 269 277 284 286 295 297 301 305 302 300 297 288 237
122 223 88 95 36 40 26 249 25 345 272 110 197 277 58 55 247 283 288 156 234 269 263 266 280 287 119 136 116 19 1 354 344 336 331 330 332 330 327 328 328 327 325 325 323 322 322 319 321 319 312 307 305 306 305 304 303 300 299 296 291 289 285 283 282 280 277 278 278 275 270 265 262 267 273 284 287 290 293 295 301 301 300 298 296 270
256 49 172 163 126 47 346 87 67 30 347 103 262 5 79 141 123 157 261 305 275 263 269 270 278 296 295 291 116 351 353 341 338 335 332 331 334 331 330 330 331 329 326 323 322 321 320 318 311 308 309 307 306 306 307 306 305 302 298 294 290 287 286 284 281 279 277 276 276 274 269 263 257 262 268 271 278 284 290 294 297 303 304 305 303 294
78 273 160 341 94 145 276 125 91 63 3 291 315 28 222 242 224 107 110 313 309 283 300 286 297 273 275 280 27 344 346 343 340 336 332 332 333 330 330 330 330 328 327 327 325 322 317 314 313 311 310 310 310 309 308 307 305 302 299 295 291 287 285 284 281 278 272 268 269 262 263 261 253 247 255 264 263 269 283 292 299 305 301 304 306 307
285 220 54 168 142 149 224 192 235 132 98 68 117 136 4 76 231 155 287 236 258 269 301 290 350 294 85 76 326 337 347 339 336 331 330 327 328 327 328 329 329 328 326 323 320 319 316 311 309 311 313 315 315 314 310 309 308 306 303 299 293 287 281 279 278 277 273 270 266 255 255 256 249 248 245 252 260 262 271 284 288 301 303 302 305 303
179 87 260 134 193 184 214 185 219 157 175 163 185 184 185 140 219 171 256 180 229 257 255 285 302 280 113 58 356 335 340 338 331 327 323 323 325 325 326 328 329 327 324 321 318 315 313 313 314 317 317 319 318 320 328 328 323 320 320 319 315 305 292 284 282 278 275 271 266 257 251 254 247 246 243 244 237 251 262 274 277 291 294 302 298 303
165 188 220 147 205 220 161 51 331 270 230 219 210 221 167 143 166 269 276 112 310 216 245 264 268 273 269 6 288 324 340 331 327 323 320 322 326 324 327 327 330 327 319 315 315 317 315 317 321 321 319 323 323 327 318 321 327 322 313 312 313 314 316 312 298 281 278 272 267 260 252 249 245 240 243 245 245 244 252 265 276 286 298 299 298 306
173 59 160 224 223 247 26 341 296 265 240 210 201 168 135 163 148 211 275 204 154 226 196 253 282 286 121 173 348 344 333 327 323 323 322 326 326 326 326 327 321 319 317 317 318 317 318 318 318 320 321 320 316 313 317 318 315 313 314 320 322 322 316 309 310 309 294 281 276 269 255 247 240 235 237 239 245 245 239 257 263 283 289 296 303 304
89 127 235 225 90 104 88 91 52 53 120 123 168 147 172 190 183 215 250 279 275 261 246 253 247 251 143 65 340 334 323 321 323 325 325 326 325 324 327 328 324 318 316 316 316 318 319 317 321 321 320 320 321 321 318 315 316 318 316 318 318 313 312 313 312 308 310 307 294 280 269 255 240 231 236 235 241 241 242 256 263 270 281 291 300 301
147 190 149 247 235 159 124 120 147 61 320 231 194 187 197 193 177 247 268 255 249 236 224 226 253 271 161 351 325 319 321 324 325 324 326 325 325 324 328 322 320 319 318 320 321 320 321 323 324 324 323 321 321 319 316 315 315 315 317 317 316 314 315 314 316 317 316 310 305 298 283 270 251 236 232 234 241 242 240 256 259 267 278 290 296 300
217 188 158 242 263 276 261 247 189 196 213 214 212 194 200 179 200 176 237 222 250 226 196 220 255 269 292 306 310 317 323 324 325 324 323 326 325 323 325 325 322 320 317 318 320 322 322 320 321 324 323 321 318 317 318 318 315 314 314 316 315 311 313 314 313 310 306 306 306 308 306 296 280 260 244 241 245 247 250 256 261 264 279 279 289 298
180 209 215 225 233 236 261 64 110 103 177 218 216 180 198 192 200 215 214 233 234 257 261 244 250 285 292 304 313 319 327 328 328 325 325 330 330 325 325 323 319 318 319 320 319 317 316 320 324 326 324 321 320 323 319 318 319 317 315 311 311 310 310 310 309 307 306 304 300 296 296 295 292 283 266 260 265 264 254 253 266 270 279 279 280 289
137 215 217 227 243 251 271 292 161 206 254 261 259 253 212 200 191 181 205 237 251 287 272 261 259 270 284 302 309 319 326 328 326 322 321 330 330 320 319 317 317 320 320 322 322 321 321 320 322 324 325 325 323 321 319 320 316 314 315 312 310 309 306 305 307 306 305 306 304 301 297 294 293 293 286 288 287 284 277 263 253 263 273 274 279 282
189 230 233 207 251 243 276 274 249 223 249 255 254 259 248 218 182 184 215 235 250 241 254 281 293 287 289 302 310 317 329 328 323 319 318 325 320 317 320 324 325 324 324 325 324 325 324 324 325 325 326 324 322 322 321 318 317 319 314 310 309 308 303 302 301 302 303 302 300 298 298 294 287 287 288 286 284 282 283 280 266 264 269 269 275 275
101 255 195 228 254 244 231 252 254 237 245 253 253 256 256 241 230 216 219 230 238 245 253 268 277 279 289 303 310 319 323 322 320 312 314 323 321 316 325 327 327 329 327 324 323 323 322 324 328 329 325 324 325 321 320 321 320 315 312 312 310 308 308 304 298 299 300 299 298 298 297 294 291 290 289 288 288 288 287 287 277 270 267 268 270 273
146 261 113 233 244 236 220 239 246 240 245 256 259 261 257 255 251 246 240 242 248 258 260 264 273 282 293 304 319 317 314 316 314 312 318 320 318 318 329 331 329 330 326 325 325 323 321 322 323 323 324 322 320 321 321 319 315 315 312 308 309 305 304 307 301 296 297 297 297 296 296 295 291 287 283 281 280 281 280 276 272 264 263 267 270 271
199 241 96 165 265 250 189 215 238 220 241 258 271 268 260 242 248 242 224 228 236 257 277 287 285 286 309 327 316 316 319 321 321 318 320 320 320 324 333 329 328 326 326 325 327 326 325 325 328 330 325 322 322 321 319 316 315 312 311 310 306 305 302 301 300 296 293 294 295 294 293 292 290 287 286 286 281 277 272 264 258 258 260 265 267 270
193 185 183 178 260 255 135 157 171 165 255 261 254 257 253 240 228 233 235 227 240 259 275 274 280 305 319 324 323 322 322 318 323 323 324 317 315 331 329 324 322 323 324 323 323 325 326 326 322 320 321 323 322 319 317 316 312 311 310 307 304 305 306 301 296 295 292 291 293 291 290 289 286 282 278 280 284 279 265 257 260 261 261 260 260 268
172 183 179 176 233 139 150 56 188 203 240 233 86 132 149 198 238 240 244 238 247 253 261 271 286 305 315 322 321 315 315 316 317 312 308 298 317 332 325 321 320 321 330 332 331 326 322 323 324 321 321 319 316 316 315 313 312 309 308 305 304 305 304 302 297 293 291 288 289 289 288 286 284 282 279 273 270 274 276 272 265 263 258 258 261 262
178 180 201 172 212 210 137 177 256 243 247 103 111 170 160 251 259 253 260 259 260 264 268 274 284 301 309 311 309 306 304 306 310 303 300 290 331 332 326 320 320 321 323 329 327 328 326 324 323 324 321 320 319 317 317 316 314 311 308 307 305 305 304 300 296 292 288 285 284 285 284 283 281 281 281 277 269 265 263 264 265 260 254 252 256 258
179 168 168 211 147 321 199 192 238 255 11 306 285 281 298 238 239 251 267 248 231 244 261 274 291 301 308 309 306 306 308 309 301 287 274 279 349 335 324 318 319 322 322 322 324 321 321 323 320 316 315 316 317 316 316 315 316 313 310 310 306 305 303 301 298 293 288 283 283 283 282 281 280 280 281 280 274 264 258 255 252 251 250 253 256 255
175 153 183 211 191 193 239 208 246 3 299 262 244 195 153 211 198 290 293 297 204 219 217 282 295 304 306 311 313 313 313 305 290 295 349 342 342 338 330 321 317 317 318 318 324 322 320 317 317 315 313 314 316 316 317 318 316 314 311 310 307 305 303 302 301 300 293 282 277 278 279 279 280 280 278 277 278 277 265 252 248 245 247 253 254 256
190 179 208 152 256 149 209 279 283 260 251 189 140 116 93 117 113 249 283 286 179 162 197 259 290 300 305 310 315 321 315 306 314 319 341 344 338 334 329 327 322 319 320 321 328 325 320 318 317 317 319 318 317 318 318 318 316 314 311 309 308 307 306 305 301 304 304 295 285 282 284 281 277 277 275 274 268 267 274 267 253 251 244 247 254 257
214 210 216 224 229 99 209 218 226 208 241 117 158 142 136 124 167 139 303 280 148 162 201 254 290 300 308 311 313 323 324 325 308 313 337 337 330 328 324 323 324 321 320 322 322 324 323 318 315 316 319 320 321 323 322 319 317 314 311 309 308 308 306 304 304 304 304 304 300 291 281 280 273 271 271 272 272 267 261 260 262 260 252 247 253 258
201 214 203 232 224 215 194 237 250 228 239 196 151 132 153 169 150 193 298 270 140 210 188 236 280 296 305 304 297 291 291 316 312 311 327 322 318 312 314 318 318 319 318 319 322 326 325 319 319 320 322 324 325 327 323 323 319 313 310 309 310 309 306 304 304 302 300 299 298 298 290 278 271 265 268 265 263 271 281 284 277 265 254 251 252 261
192 211 210 215 220 223 218 243 289 273 255 250 248 192 126 152 141 182 229 253 76 309 175 209 276 289 288 290 283 292 277 278 288 301 309 308 311 312 314 317 316 314 314 317 322 328 330 326 319 313 313 315 319 324 324 316 315 314 312 310 311 307 307 306 304 301 300 298 297 297 295 284 272 265 265 263 264 266 265 262 263 262 259 259 257 256
202 166 248 211 214 222 223 233 242 279 259 225 214 163 141 129 223 226 231 100 172 288 280 270 287 291 289 276 272 264 282 293 294 297 302 305 307 307 310 316 317 315 315 316 319 326 329 326 319 315 316 320 320 321 320 324 321 315 316 315 307 303 305 306 304 300 299 298 297 297 295 289 276 260 259 260 257 256 256 254 251 253 257 259 259 253
183 162 205 196 198 216 214 210 269 264 311 179 159 107 181 186 234 4 58 167 159 217 263 272 265 278 288 289 278 278 285 295 302 304 303 305 308 309 313 317 320 321 323 326 329 333 333 325 323 320 320 321 319 319 326 320 316 318 317 309 305 306 306 304 303 302 301 298 295 293 292 292 287 267 253 253 256 257 260 261 259 257 257 260 256 251
178 141 195 199 175 169 188 177 201 224 177 166 155 189 179 217 274 221 240 278 166 183 216 272 266 243 262 272 290 296 295 299 302 308 309 308 309 311 312 313 315 316 317 319 322 328 333 330 327 324 315 314 321 325 320 318 322 314 309 308 314 315 313 310 306 303 299 297 295 294 292 291 289 278 252 249 248 251 254 252 251 250 251 249 249 249
196 192 173 188 180 169 199 202 212 175 164 180 177 199 203 199 148 172 196 247 233 217 144 241 271 261 245 273 283 290 300 300 303 311 310 309 312 315 316 318 319 319 321 324 328 331 331 328 322 318 316 318 322 320 321 327 317 317 318 318 318 318 314 310 307 303 298 293 291 290 290 290 289 288 267 242 240 247 247 248 243 248 243 237 238 237
333 160 72 79 223 239 276 188 207 166 184 189 228 220 161 149 151 140 174 207 231 187 178 245 281 272 260 271 290 289 279 299 310 311 309 307 308 308 311 313 316 318 318 320 321 330 329 323 319 323 322 321 322 325 330 324 328 322 316 314 314 313 311 310 308 303 298 294 288 286 287 288 286 283 274 243 240 236 238 242 242 240 241 229 228 229
205 143 180 225 178 167 242 171 206 218 189 197 178 101 42 152 173 174 187 210 205 172 186 212 235 252 259 282 270 285 295 305 307 304 304 303 306 311 313 313 316 321 323 324 325 328 330 332 329 328 328 321 324 333 327 327 324 317 318 321 319 317 316 311 303 295 291 291 290 287 284 282 282 283 286 266 239 231 233 229 230 234 237 227 226 224
249 154 178 225 210 211 228 222 224 162 189 170 166 170 192 192 176 181 182 169 157 155 178 203 193 237 237 248 258 281 289 299 302 303 305 304 306 310 314 316 318 320 321 321 321 326 326 328 330 327 326 325 329 328 327 328 324 323 325 324 322 315 312 312 310 302 294 291 287 281 279 276 275 277 275 271 259 250 242 222 218 230 224 221 216 219
128 137 205 191 216 231 258 269 238 167 216 225 226 218 200 168 170 175 165 166 172 183 202 204 207 222 231 254 268 280 284 286 290 297 300 304 306 308 313 317 318 318 320 323 326 326 325 326 327 326 326 326 322 325 330 322 320 323 331 328 325 324 321 318 316 304 291 285 297 290 280 274 275 275 277 277 263 241 238 231 222 221 231 221 214 211
139 213 170 135 214 219 204 227 186 177 248 205 212 203 178 160 155 160 163 170 186 193 199 203 219 223 231 249 256 260 271 281 288 297 298 298 301 306 312 317 318 319 321 323 322 324 324 326 325 324 326 323 326 328 324 323 322 326 323 329 329 326 323 320 315 311 314 312 311 305 302 295 278 275 279 278 273 269 251 229 225 222 221 229 213 218
200 202 172 201 208 224 224 220 188 223 249 223 190 171 155 154 154 165 186 190 189 191 186 194 207 217 225 235 237 249 264 277 287 298 298 298 300 306 309 316 321 323 323 326 326 326 327 325 324 323 322 327 330 323 326 325 321 323 331 335 329 327 321 316 315 322 320 328 329 322 317 313 299 281 274 276 280 267 263 265 236 228 227 226 222 215